Time,TemperatureF,DewpointF,PressureIn,WindDirection,WindDirectionDegrees,WindSpeedMPH,WindSpeedGustMPH,Humidity,HourlyPrecipIn,Conditions,Clouds,dailyrainin,SoftwareType,DateUTC
2013-08-18 00:05:00,62.7,37.0,30.09,SE,134,2.0,-999.0,39,-99.99,,,0.00,weatherlink.com 1.10,2013-08-18 06:05:00,
2013-08-18 00:20:00,64.4,37.0,30.09,SSE,166,0.0,-999.0,37,-99.99,,,0.00,weatherlink.com 1.10,2013-08-18 06:20:00,
2013-08-18 00:35:00,64.8,38.0,30.09,South,186,5.0,-999.0,37,-99.99,,,0.00,weatherlink.com 1.10,2013-08-18 06:35:00,
2013-08-18 00:50:00,64.8,38.0,30.09,SSW,193,3.0,-999.0,37,-99.99,,,0.00,weatherlink.com 1.10,2013-08-18 06:50:00,
2013-08-18 01:05:00,65.7,38.0,30.10,South,190,6.0,-999.0,36,-99.99,,,0.00,weatherlink.com 1.10,2013-08-18 07:05:00,
2013-08-18 01:20:00,65.6,38.0,30.09,South,190,2.0,-999.0,36,-99.99,,,0.00,weatherlink.com 1.10,2013-08-18 07:20:00,
2013-08-18 01:35:00,64.2,38.0,30.09,South,189,3.0,-999.0,38,-99.99,,,0.00,weatherlink.com 1.10,2013-08-18 07:35:00,
2013-08-18 01:50:00,63.6,39.0,30.09,South,189,0.0,-999.0,40,-99.99,,,0.00,weatherlink.com 1.10,2013-08-18 07:50:00,
2013-08-18 02:05:00,62.0,38.0,30.09,South,188,0.0,-999.0,41,-99.99,,,0.00,weatherlink.com 1.10,2013-08-18 08:05:00,
2013-08-18 02:20:00,62.0,38.0,30.09,South,174,3.0,-999.0,41,-99.99,,,0.00,weatherlink.com 1.10,2013-08-18 08:20:00,
2013-08-18 02:35:00,62.0,38.0,30.08,SSE,153,2.0,-999.0,41,-99.99,,,0.00,weatherlink.com 1.10,2013-08-18 08:35:00,
2013-08-18 02:50:00,60.6,39.0,30.07,SSE,150,2.0,-999.0,45,-99.99,,,0.00,weatherlink.com 1.10,2013-08-18 08:50:00,
2013-08-18 03:05:00,59.0,38.0,30.08,SSE,150,0.0,-999.0,45,-99.99,,,0.00,weatherlink.com 1.10,2013-08-18 09:05:00,
2013-08-18 03:20:00,58.5,39.0,30.08,SSE,154,1.0,-999.0,48,-99.99,,,0.00,weatherlink.com 1.10,2013-08-18 09:20:00,
2013-08-18 03:35:00,59.0,39.0,30.08,SE,146,2.0,-999.0,47,-99.99,,,0.00,weatherlink.com 1.10,2013-08-18 09:35:00,
2013-08-18 03:50:00,60.5,39.0,30.08,SE,131,4.0,-999.0,45,-99.99,,,0.00,weatherlink.com 1.10,2013-08-18 09:50:00,
2013-08-18 04:05:00,61.3,40.0,30.08,SE,130,2.0,-999.0,45,-99.99,,,0.00,weatherlink.com 1.10,2013-08-18 10:05:00,
2013-08-18 04:35:00,63.4,40.0,30.09,SE,128,0.0,-999.0,43,-99.99,,,0.00,weatherlink.com 1.10,2013-08-18 10:35:00,
2013-08-18 04:50:00,62.6,40.0,30.09,SE,129,2.0,-999.0,44,-99.99,,,0.00,weatherlink.com 1.10,2013-08-18 10:50:00,
2013-08-18 05:05:00,61.5,40.0,30.09,SE,126,2.0,-999.0,46,-99.99,,,0.00,weatherlink.com 1.10,2013-08-18 11:05:00,
2013-08-18 05:20:00,59.0,41.0,30.10,NW,307,2.0,-999.0,51,-99.99,,,0.00,weatherlink.com 1.10,2013-08-18 11:20:00,
2013-08-18 05:35:00,55.0,41.0,30.11,NW,320,1.0,-999.0,59,-99.99,,,0.00,weatherlink.com 1.10,2013-08-18 11:35:00,
2013-08-18 05:50:00,53.8,39.0,30.11,East,80,0.0,-999.0,58,-99.99,,,0.00,weatherlink.com 1.10,2013-08-18 11:50:00,
2013-08-18 06:05:00,55.1,39.0,30.11,East,92,2.0,-999.0,56,-99.99,,,0.00,weatherlink.com 1.10,2013-08-18 12:05:00,
2013-08-18 06:20:00,55.4,40.0,30.11,ESE,115,3.0,-999.0,56,-99.99,,,0.00,weatherlink.com 1.10,2013-08-18 12:20:00,
2013-08-18 06:35:00,55.7,40.0,30.11,ESE,117,0.0,-999.0,56,-99.99,,,0.00,weatherlink.com 1.10,2013-08-18 12:35:00,
2013-08-18 06:50:00,54.5,39.0,30.11,ESE,104,2.0,-999.0,57,-99.99,,,0.00,weatherlink.com 1.10,2013-08-18 12:50:00,
2013-08-18 07:05:00,54.1,39.0,30.12,ESE,105,0.0,-999.0,58,-99.99,,,0.00,weatherlink.com 1.10,2013-08-18 13:05:00,
2013-08-18 07:20:00,53.3,40.0,30.12,ESE,105,0.0,-999.0,62,-99.99,,,0.00,weatherlink.com 1.10,2013-08-18 13:20:00,
2013-08-18 07:35:00,55.1,41.0,30.12,ESE,105,0.0,-999.0,59,-99.99,,,0.00,weatherlink.com 1.10,2013-08-18 13:35:00,
2013-08-18 07:50:00,58.1,42.0,30.12,ESE,103,1.0,-999.0,56,-99.99,,,0.00,weatherlink.com 1.10,2013-08-18 13:50:00,
2013-08-18 08:05:00,60.4,42.0,30.13,East,99,1.0,-999.0,52,-99.99,,,0.00,weatherlink.com 1.10,2013-08-18 14:05:00,
2013-08-18 08:20:00,62.3,43.0,30.13,East,99,0.0,-999.0,50,-99.99,,,0.00,weatherlink.com 1.10,2013-08-18 14:20:00,
2013-08-18 08:35:00,65.0,44.0,30.13,East,99,2.0,-999.0,47,-99.99,,,0.00,weatherlink.com 1.10,2013-08-18 14:35:00,
2013-08-18 08:50:00,67.7,47.0,30.13,WNW,292,4.0,-999.0,47,-99.99,,,0.00,weatherlink.com 1.10,2013-08-18 14:50:00,
2013-08-18 09:05:00,66.2,46.0,30.13,NW,307,0.0,-999.0,49,-99.99,,,0.00,weatherlink.com 1.10,2013-08-18 15:05:00,
2013-08-18 09:20:00,68.5,47.0,30.13,NW,307,3.0,-999.0,47,-99.99,,,0.00,weatherlink.com 1.10,2013-08-18 15:20:00,
2013-08-18 09:35:00,70.6,49.0,30.13,NW,307,0.0,-999.0,46,-99.99,,,0.00,weatherlink.com 1.10,2013-08-18 15:35:00,
2013-08-18 09:50:00,73.1,49.0,30.13,WSW,250,2.0,-999.0,43,-99.99,,,0.00,weatherlink.com 1.10,2013-08-18 15:50:00,
2013-08-18 10:05:00,75.2,48.0,30.13,SW,225,5.0,-999.0,39,-99.99,,,0.00,weatherlink.com 1.10,2013-08-18 16:05:00,
2013-08-18 10:20:00,76.7,46.0,30.12,SSW,202,4.0,-999.0,34,-99.99,,,0.00,weatherlink.com 1.10,2013-08-18 16:20:00,
2013-08-18 10:35:00,77.8,45.0,30.12,SW,225,4.0,-999.0,31,-99.99,,,0.00,weatherlink.com 1.10,2013-08-18 16:35:00,
2013-08-18 10:50:00,78.9,45.0,30.13,SW,232,5.0,-999.0,30,-99.99,,,0.00,weatherlink.com 1.10,2013-08-18 16:50:00,
2013-08-18 11:05:00,79.7,44.0,30.13,ESE,118,2.0,-999.0,28,-99.99,,,0.00,weatherlink.com 1.10,2013-08-18 17:05:00,
2013-08-18 11:20:00,80.2,45.0,30.13,SSW,203,2.0,-999.0,29,-99.99,,,0.00,weatherlink.com 1.10,2013-08-18 17:20:00,
2013-08-18 11:35:00,80.8,45.0,30.13,SW,225,0.0,-999.0,28,-99.99,,,0.00,weatherlink.com 1.10,2013-08-18 17:35:00,
2013-08-18 11:50:00,81.6,44.0,30.12,ENE,74,0.0,-999.0,27,-99.99,,,0.00,weatherlink.com 1.10,2013-08-18 17:50:00,
2013-08-18 12:05:00,82.7,42.0,30.12,NNE,13,7.0,-999.0,24,-99.99,,,0.00,weatherlink.com 1.10,2013-08-18 18:05:00,
2013-08-18 12:20:00,82.5,41.0,30.12,NW,325,3.0,-999.0,23,-99.99,,,0.00,weatherlink.com 1.10,2013-08-18 18:20:00,
2013-08-18 12:35:00,83.4,41.0,30.12,NW,325,0.0,-999.0,22,-99.99,,,0.00,weatherlink.com 1.10,2013-08-18 18:35:00,
2013-08-18 12:50:00,83.8,41.0,30.11,NE,49,3.0,-999.0,22,-99.99,,,0.00,weatherlink.com 1.10,2013-08-18 18:50:00,
2013-08-18 13:05:00,84.0,42.0,30.11,ENE,74,3.0,-999.0,23,-99.99,,,0.00,weatherlink.com 1.10,2013-08-18 19:05:00,
2013-08-18 13:20:00,84.6,44.0,30.11,SW,228,4.0,-999.0,24,-99.99,,,0.00,weatherlink.com 1.10,2013-08-18 19:20:00,
2013-08-18 13:35:00,84.5,43.0,30.11,WSW,240,1.0,-999.0,23,-99.99,,,0.00,weatherlink.com 1.10,2013-08-18 19:35:00,
2013-08-18 13:50:00,85.0,43.0,30.10,SE,132,3.0,-999.0,23,-99.99,,,0.00,weatherlink.com 1.10,2013-08-18 19:50:00,
2013-08-18 14:05:00,85.2,43.0,30.10,SSW,209,4.0,-999.0,23,-99.99,,,0.00,weatherlink.com 1.10,2013-08-18 20:05:00,
2013-08-18 14:20:00,85.0,43.0,30.10,SSE,155,1.0,-999.0,23,-99.99,,,0.00,weatherlink.com 1.10,2013-08-18 20:20:00,
2013-08-18 14:35:00,85.2,43.0,30.09,NE,45,9.0,-999.0,23,-99.99,,,0.00,weatherlink.com 1.10,2013-08-18 20:35:00,
2013-08-18 14:50:00,85.7,44.0,30.09,North,360,4.0,-999.0,23,-99.99,,,0.00,weatherlink.com 1.10,2013-08-18 20:50:00,
2013-08-18 15:05:00,86.3,43.0,30.09,East,92,1.0,-999.0,22,-99.99,,,0.00,weatherlink.com 1.10,2013-08-18 21:05:00,
2013-08-18 15:20:00,87.5,43.0,30.09,North,355,0.0,-999.0,21,-99.99,,,0.00,weatherlink.com 1.10,2013-08-18 21:20:00,
2013-08-18 15:35:00,87.3,44.0,30.09,South,183,2.0,-999.0,22,-99.99,,,0.00,weatherlink.com 1.10,2013-08-18 21:35:00,
2013-08-18 15:50:00,87.5,44.0,30.08,West,270,1.0,-999.0,22,-99.99,,,0.00,weatherlink.com 1.10,2013-08-18 21:50:00,
2013-08-18 16:05:00,88.3,42.0,30.07,SW,224,12.0,-999.0,20,-99.99,,,0.00,weatherlink.com 1.10,2013-08-18 22:05:00,
2013-08-18 16:20:00,88.5,45.0,30.06,WNW,293,10.0,-999.0,22,-99.99,,,0.00,weatherlink.com 1.10,2013-08-18 22:20:00,
2013-08-18 16:35:00,87.6,43.0,30.06,NNE,16,1.0,-999.0,21,-99.99,,,0.00,weatherlink.com 1.10,2013-08-18 22:35:00,
2013-08-18 16:50:00,88.3,44.0,30.06,WNW,293,10.0,-999.0,21,-99.99,,,0.00,weatherlink.com 1.10,2013-08-18 22:50:00,
2013-08-18 17:06:00,87.8,43.0,30.06,West,262,6.0,-999.0,21,-99.99,,,0.00,weatherlink.com 1.10,2013-08-18 23:06:00,
2013-08-18 17:21:00,86.5,42.0,30.05,WNW,289,10.0,-999.0,21,-99.99,,,0.00,weatherlink.com 1.10,2013-08-18 23:21:00,
2013-08-18 17:36:00,86.6,41.0,30.05,NW,311,4.0,-999.0,20,-99.99,,,0.00,weatherlink.com 1.10,2013-08-18 23:36:00,
2013-08-18 17:51:00,86.0,41.0,30.05,NNW,342,7.0,-999.0,20,-99.99,,,0.00,weatherlink.com 1.10,2013-08-18 23:51:00,
2013-08-18 18:06:00,85.8,42.0,30.05,NNW,327,4.0,-999.0,21,-99.99,,,0.00,weatherlink.com 1.10,2013-08-19 00:06:00,
2013-08-18 18:21:00,85.0,41.0,30.04,NW,325,4.0,-999.0,21,-99.99,,,0.00,weatherlink.com 1.10,2013-08-19 00:21:00,
2013-08-18 18:36:00,84.8,42.0,30.04,NNW,329,6.0,-999.0,22,-99.99,,,0.00,weatherlink.com 1.10,2013-08-19 00:36:00,
2013-08-18 18:51:00,83.9,42.0,30.04,NNW,331,3.0,-999.0,23,-99.99,,,0.00,weatherlink.com 1.10,2013-08-19 00:51:00,
2013-08-18 19:06:00,83.6,43.0,30.05,North,355,5.0,-999.0,24,-99.99,,,0.00,weatherlink.com 1.10,2013-08-19 01:06:00,
2013-08-18 19:21:00,83.0,49.0,30.05,North,355,2.0,-999.0,30,-99.99,,,0.00,weatherlink.com 1.10,2013-08-19 01:21:00,
2013-08-18 19:36:00,81.9,44.0,30.04,North,355,0.0,-999.0,26,-99.99,,,0.00,weatherlink.com 1.10,2013-08-19 01:36:00,
2013-08-18 19:51:00,80.9,48.0,30.04,North,355,0.0,-999.0,31,-99.99,,,0.00,weatherlink.com 1.10,2013-08-19 01:51:00,
2013-08-18 20:05:00,79.1,44.0,30.04,North,355,0.0,-999.0,29,-99.99,,,0.00,weatherlink.com 1.10,2013-08-19 02:05:00,
2013-08-18 20:20:00,76.4,44.0,30.05,North,355,0.0,-999.0,32,-99.99,,,0.00,weatherlink.com 1.10,2013-08-19 02:20:00,
2013-08-18 20:35:00,73.7,44.0,30.05,North,355,0.0,-999.0,34,-99.99,,,0.00,weatherlink.com 1.10,2013-08-19 02:35:00,
2013-08-18 20:50:00,69.7,42.0,30.06,North,355,2.0,-999.0,37,-99.99,,,0.00,weatherlink.com 1.10,2013-08-19 02:50:00,
2013-08-18 21:05:00,66.5,41.0,30.06,NNE,16,1.0,-999.0,39,-99.99,,,0.00,weatherlink.com 1.10,2013-08-19 03:05:00,
2013-08-18 21:21:00,64.2,40.0,30.07,NE,38,2.0,-999.0,41,-99.99,,,0.00,weatherlink.com 1.10,2013-08-19 03:21:00,
2013-08-18 21:35:00,64.9,39.0,30.08,NE,48,2.0,-999.0,38,-99.99,,,0.00,weatherlink.com 1.10,2013-08-19 03:35:00,
2013-08-18 21:50:00,64.8,38.0,30.09,ENE,74,2.0,-999.0,38,-99.99,,,0.00,weatherlink.com 1.10,2013-08-19 03:50:00,
2013-08-18 22:06:00,63.7,38.0,30.10,ENE,74,1.0,-999.0,39,-99.99,,,0.00,weatherlink.com 1.10,2013-08-19 04:06:00,
2013-08-18 22:21:00,62.9,38.0,30.10,ENE,74,0.0,-999.0,40,-99.99,,,0.00,weatherlink.com 1.10,2013-08-19 04:21:00,
2013-08-18 22:36:00,62.6,38.0,30.10,ENE,74,1.0,-999.0,41,-99.99,,,0.00,weatherlink.com 1.10,2013-08-19 04:36:00,
2013-08-18 22:51:00,62.5,39.0,30.11,East,79,3.0,-999.0,42,-99.99,,,0.00,weatherlink.com 1.10,2013-08-19 04:51:00,
2013-08-18 23:06:00,63.2,38.0,30.11,ESE,103,1.0,-999.0,40,-99.99,,,0.00,weatherlink.com 1.10,2013-08-19 05:06:00,
2013-08-18 23:21:00,63.4,39.0,30.11,ESE,115,3.0,-999.0,40,-99.99,,,0.00,weatherlink.com 1.10,2013-08-19 05:21:00,
2013-08-18 23:36:00,63.5,39.0,30.11,ESE,122,2.0,-999.0,40,-99.99,,,0.00,weatherlink.com 1.10,2013-08-19 05:36:00,
2013-08-18 23:51:00,63.2,38.0,30.11,ESE,122,1.0,-999.0,39,-99.99,,,0.00,weatherlink.com 1.10,2013-08-19 05:51:00,